User: anonymous   Login
Location: Unspecified
(44.7900°N, 0.0000°E)
Time: 20:28:03
(UTC+00:00)
Language:

Envisat - Orbit

View from above orbital plane
View from above orbital plane
View from above satellite
View from above satellite

Ground track
Ground track

The orbit data is extracted from the following two-line orbital elements,

1 27386U 02009A   19198.49791501 -.00000016  00000-0  83196-5 0  9991
2 27386  98.1478 218.0500 0001397  94.7093  77.4500 14.37952700910330
Epoch (UTC): 17 July 2019 11:56:59
Eccentricity: 0.0001397
inclination: 98.1478°
perigee height: 764 km
apogee height: 766 km
right ascension of ascending node: 218.0500°
argument of perigee: 94.7093°
revolutions per day: 14.37952700
mean anomaly at epoch: 77.4500°
orbit number at epoch: 91033

The dashed part of the orbit path shows where the satellite is in the earth's shadow,  

DLR